Regional Weather Roundup
Issued by NWS Bismarck, ND

Home | Current Version | Previous Version | Text Only | Print | Product List | Glossary On
Versions: 1 2 3 4 5 6 7 8 9 10 11 12 13 14 15 16 17 18 19 20 21 22 23 24 25 26 27 28 29 30 31 32 33 34 35 36 37 38 39 40 41 42 43 44 45 46 47 48 49 50
000
ASUS43 KBIS 200810
RWRBIS

NWR BROADCAST TEXT
NATIONAL WEATHER SERVICE BISMARCK ND
300 AM CDT SUN AUG 20 2017

NOTE: "FAIR" INDICATES FEW OR NO CLOUDS BELOW 12,000 FEET WITH NO
SIGNIFICANT WEATHER AND/OR OBSTRUCTIONS TO VISIBILITY.


CITY           SKY/WX    TMP DP  RH WIND       PRES   REMARKS
WILLISTON      CLOUDY    53  41  63 N7        29.99S
MINOT          PTCLDY    60  42  51 W12       29.94R
MINOT AFB      PTCLDY    56  41  57 NW9       29.92R
BISMARCK       PTCLDY    64  48  56 NW7       29.94R
DICKINSON      MOCLDY    56  44  64 NW6       30.00R
GARRISON         N/A     54  46  74 N12       29.95R
HETTINGER ARPT CLOUDY    57  46  66 N8        30.03R
JAMESTOWN      CLEAR     63  55  75 NW12      29.86R
CARRINGTON     FAIR      59  54  82 NW10      29.91R
HAZEN          CLOUDY    55  45  67 CALM      29.97R
LINTON         FAIR      59  48  67 N5        29.93F
MANDAN         FAIR      59  46  63 NW9       29.95S
RUGBY          FAIR      54  48  82 NW10      29.90S
STANLEY        PTSUNNY   55  39  54 NW7       30.00R
TIOGA          FAIR      52  41  66 NW9       30.00S
WATFORD CITY   FAIR      54  41  62 CALM      29.99R
$$

CITY           SKY/WX    TMP DP  RH WIND       PRES   REMARKS
GRAND FORKS    CLEAR     67  58  72 NW12      29.77R
GRAND FORKS AF CLEAR     65  54  65 NW13      29.79R
DEVILS LAKE    CLEAR     61  51  70 NW12      29.87R
FARGO          MOCLDY    68  64  87 W12       29.78R
CANDO          FAIR      54  55 100 W8        29.90R
CAVALIER       FAIR      66  52  59 NW15G21   29.78R
GRAFTON        FAIR      66  57  72 NW13      29.79R
GWINNER        SUNNY     68  61  77 NW12G18   29.83R
LANGDON        FAIR      57  54  88 NW10      29.85R
ROLLA          FAIR      59  45  58 NW17      29.89R
WALHALLA       FAIR      64  64 100 NW14      29.79R
$$

CITY           SKY/WX    TMP DP  RH WIND       PRES   REMARKS
ABERDEEN       PTCLDY    62  62 100 NW5       29.84R
MOBRIDGE       CLOUDY    69  53  56 N13       29.87R
BUFFALO          N/A     62  45  53 NE20      29.92F
RAPID CITY     CLEAR     63  44  50 NW12      29.99R
GLASGOW        PTCLDY    54  30  40 NW5       30.02S
SIDNEY         PTCLDY    55  39  54 CALM      30.00F
WOLF POINT     CLEAR     62  32  32 N7        30.02S
GLENDIVE       MOCLDY    59  36  42 N6        30.04R
MILES CITY     CLOUDY    63  38  39 NE10      30.02R
BAKER          PTCLDY    58  40  51 CALM      30.03S
$$

CITY           SKY/WX    TMP DP  RH WIND       PRES   REMARKS
BILLINGS       PTCLDY    63  37  38 NE12      30.04R
GREAT FALLS    PTCLDY    52  37  56 SW5       30.03F
REGINA         CLEAR     41  34  75 W6        29.98R
ESTEVAN        PTCLDY    46  37  71 W9        29.97R
$$




USA.gov is the U.S. government's official web portal to all federal, state and local government web resources and services.